Weather History for Sheridan, WY

Change the Weather History Date:

Wednesday, January 1, 2014

  Actual Average Record
Temperature  
Mean Temperature 21 °F 23 °F  
Max Temperature 32 °F 35 °F 64 °F (1997)
Min Temperature 9 °F 10 °F -28 °F (1928)
Degree Days  
Heating Degree Days 44 42  
Month to date heating degree days 44 42  
Since 1 July heating degree days 3264 3225  
Cooling Degree Days 0 0  
Month to date cooling degree days 0 0  
Year to date cooling degree days 0 0  
Moisture  
Dew Point 22 °F    
Average Humidity 83    
Maximum Humidity 92    
Minimum Humidity 73    
Precipitation  
Precipitation 0.25 in 0.02 in 0.29 in (1972)
Month to date precipitation 0.25 0.02  
Year to date precipitation 0.25 0.02  
Sea Level Pressure  
Sea Level Pressure 30.24 in    
Wind  
Wind Speed 6 mph (WNW)    
Max Wind Speed 18 mph    
Max Gust Speed 21 mph    
Visibility 6 miles    
Events Fog , Snow    
T = Trace of Precipitation, MM = Missing Value Source: NWS Daily Summary

Daily Weather History Graph

Daily Weather History Graph

Search for Another Location

Airport:

Trip Planner

Search our weather history database for the weather conditions in past years. The results will help you decide how hot, cold, wet, or windy it might be!

Date:

Astronomy

Jan. 01, 2014 Rise Set
Actual Time 7:45 AM MST 4:38 PM MST
Civil Twilight 7:11 AM MST 5:11 PM MST
Nautical Twilight 6:34 AM MST 5:48 PM MST
Astronomical Twilight 5:59 AM MST 6:23 PM MST
Moon 7:35 AM MST (1/1) 5:29 PM MST (1/1)
Length of Visible Light 9h 59m
Length of Day
8h 52m
New Moon, 0% of the Moon is Illuminated
Jan 1
New Moon
Jan 7
First Quarter
Jan 15
Full
Jan 23
Last Quarter
Jan 30
New

Hourly Weather History & Observations

Time (MST) Temp. Windchill Dew Point Humidity Pressure Visibility Wind Dir Wind Speed Gust Speed Precip Events Conditions
12:53 AM 28.9 °F 20.4 °F 25.0 °F 85% 30.06 in 10.0 mi WSW 9.2 mph - N/A   Scattered Clouds
1:53 AM 28.9 °F - 25.0 °F 85% 30.08 in 10.0 mi Calm Calm - N/A   Overcast
2:53 AM 27.0 °F 23.0 °F 24.1 °F 89% 30.11 in 10.0 mi WSW 3.5 mph - N/A   Overcast
3:48 AM 30.2 °F 22.6 °F 26.6 °F 86% 30.05 in 2.5 mi North 8.1 mph - 0.00 in Snow Light Snow
3:53 AM 28.9 °F 22.8 °F 26.1 °F 89% 30.13 in 1.5 mi North 5.8 mph - 0.00 in Snow Light Snow
4:30 AM 28.9 °F - 27.0 °F 92% 30.06 in 0.8 mi Calm Calm - 0.02 in Snow Light Snow
4:43 AM 28.9 °F - 27.0 °F 92% 30.07 in 1.0 mi Calm Calm - 0.03 in Snow Light Snow
4:53 AM 28.9 °F 25.2 °F 27.0 °F 92% 30.16 in 1.2 mi NW 3.5 mph - 0.04 in Snow Light Snow
5:04 AM 28.9 °F 25.2 °F 28.0 °F 96% 30.08 in 0.8 mi WNW 3.5 mph - 0.01 in Snow Light Snow
5:29 AM 28.9 °F 22.8 °F 28.0 °F 96% 30.10 in 0.5 mi NW 5.8 mph - 0.05 in Fog , Snow Snow
5:41 AM 30.0 °F 22.4 °F 28.0 °F 92% 30.11 in 0.8 mi NW 8.1 mph - 0.07 in Snow Light Snow
5:53 AM 30.0 °F 22.4 °F 28.0 °F 92% 30.22 in 0.8 mi NW 8.1 mph - 0.08 in Snow Light Snow
6:25 AM 28.9 °F 19.2 °F 27.0 °F 92% 30.15 in 1.0 mi NNW 11.5 mph - 0.05 in Snow Light Snow
6:40 AM 28.9 °F 19.2 °F 27.0 °F 92% 30.15 in 0.8 mi NW 11.5 mph - 0.06 in Snow Light Snow
6:53 AM 28.0 °F 17.0 °F 26.1 °F 92% 30.26 in 0.8 mi WNW 13.8 mph - 0.07 in Snow Light Snow
7:02 AM 28.0 °F 16.5 °F 26.1 °F 92% 30.16 in 1.0 mi WNW 15.0 mph - 0.01 in Snow Light Snow
7:14 AM 28.0 °F 17.5 °F 26.1 °F 92% 30.17 in 1.0 mi WNW 12.7 mph - 0.01 in Snow Light Snow
7:28 AM 28.0 °F 17.5 °F 26.1 °F 92% 30.18 in 0.8 mi WNW 12.7 mph - 0.02 in Snow Light Snow
7:37 AM 28.0 °F 17.0 °F 26.1 °F 92% 30.19 in 1.0 mi WNW 13.8 mph - 0.02 in Snow Light Snow
7:53 AM 28.9 °F 18.6 °F 26.1 °F 89% 30.30 in 1.0 mi WNW 12.7 mph - 0.03 in Snow Light Snow
8:00 AM 28.9 °F 19.8 °F 27.0 °F 92% 30.20 in 0.8 mi WNW 10.4 mph - 0.00 in Snow Light Snow
8:14 AM 28.9 °F 19.8 °F 27.0 °F 92% 30.21 in 1.0 mi WNW 10.4 mph - 0.01 in Snow Light Snow
8:23 AM 28.9 °F 19.2 °F 27.0 °F 92% 30.22 in 0.8 mi WNW 11.5 mph - 0.01 in Snow Light Snow
8:30 AM 28.9 °F 19.2 °F 27.0 °F 92% 30.22 in 0.8 mi WNW 11.5 mph - 0.02 in Snow Light Snow
8:43 AM 28.9 °F 18.6 °F 27.0 °F 92% 30.23 in 1.8 mi WNW 12.7 mph - 0.02 in Snow Light Snow
8:53 AM 28.9 °F 18.2 °F 26.1 °F 89% 30.34 in 1.2 mi WNW 13.8 mph - 0.02 in Snow Light Snow
9:28 AM 28.9 °F 19.2 °F 26.1 °F 89% 30.25 in 3.0 mi West 11.5 mph - 0.01 in Snow Light Snow
9:44 AM 28.9 °F 19.8 °F 25.0 °F 85% 30.25 in 10.0 mi West 10.4 mph - 0.01 in   Overcast
9:53 AM 28.9 °F 19.8 °F 25.0 °F 85% 30.36 in 10.0 mi West 10.4 mph - 0.01 in   Mostly Cloudy
10:53 AM 28.0 °F 17.0 °F 24.1 °F 85% 30.38 in 10.0 mi NW 13.8 mph - N/A   Scattered Clouds
11:22 AM 28.0 °F 22.8 °F 24.1 °F 85% 30.27 in 10.0 mi WNW 4.6 mph - N/A   Mostly Cloudy
11:53 AM 30.0 °F 23.2 °F 25.0 °F 82% 30.37 in 10.0 mi WNW 6.9 mph - N/A   Overcast
12:14 PM 27.0 °F 18.0 °F 23.0 °F 85% 30.25 in 10.0 mi WNW 9.2 mph - N/A   Scattered Clouds
12:53 PM 28.0 °F 21.7 °F 23.0 °F 81% 30.36 in 10.0 mi West 5.8 mph - N/A   Clear
1:53 PM 27.0 °F 20.5 °F 21.0 °F 78% 30.37 in 10.0 mi West 5.8 mph - N/A   Scattered Clouds
2:53 PM 21.9 °F 14.5 °F 19.0 °F 89% 30.38 in 10.0 mi SSW 5.8 mph - N/A   Clear
3:53 PM 21.0 °F 13.4 °F 17.1 °F 85% 30.38 in 10.0 mi SSW 5.8 mph - N/A   Mostly Cloudy
4:53 PM 21.9 °F 15.7 °F 17.1 °F 82% 30.37 in 10.0 mi SSW 4.6 mph - N/A   Mostly Cloudy
5:53 PM 18.0 °F 9.8 °F 14.0 °F 84% 30.38 in 10.0 mi South 5.8 mph - N/A   Partly Cloudy
6:53 PM 12.9 °F 3.8 °F 9.0 °F 84% 30.39 in 10.0 mi SW 5.8 mph - N/A   Clear
7:53 PM 19.0 °F - 12.0 °F 74% 30.35 in 10.0 mi Calm Calm - N/A   Clear
8:53 PM 18.0 °F - 10.0 °F 71% 30.34 in 10.0 mi Calm Calm - N/A   Clear
9:53 PM 16.0 °F 8.8 °F 9.0 °F 74% 30.33 in 10.0 mi South 4.6 mph - N/A   Clear
10:53 PM 10.9 °F 2.9 °F 6.1 °F 81% 30.35 in 10.0 mi SSW 4.6 mph - N/A   Clear
11:53 PM 14.0 °F - 6.1 °F 71% 30.33 in 10.0 mi Calm Calm - N/A   Clear